Regional Weather Roundup
Issued by NWS Charleston, SC

Current Version | Previous Version | Text Only | Print | Product List | Glossary Off
Versions: 1 2 3 4 5 6 7 8 9 10 11 12 13 14 15 16 17 18 19 20 21 22 23 24 25 26 27 28 29 30 31 32 33 34 35 36 37 38 39 40 41 42 43 44 45 46 47 48 49 50
000 ASUS42 KCHS 251513 RWRCHS REGIONAL WEATHER ROUNDUP NATIONAL WEATHER SERVICE CHARLESTON SC 1100 AM EDT MON JUL 25 2016 NOTE: "FAIR" INDICATES FEW OR NO CLOUDS BELOW 12,000 FEET WITH NO SIGNIFICANT WEATHER AND/OR OBSTRUCTIONS TO VISIBILITY. NOT ALL STATIONS ARE QUALITY CONTROLLED. USE DATA WITH CAUTION... ESPECIALLY DEWPOINT OBSERVATIONS. SCZ027-030-031-034>040-042>050-251600- ...SOUTHEAST SOUTH CAROLINA... CITY SKY/WX TMP DP RH WIND PRES REMARKS N CHARLESTON MOSUNNY 88 74 63 S6 30.09F HX 96 WATERFRONT PRK N/A 86 76 72 S7 30.07F HX 96 MOUNT PLEASANT FAIR 88 75 66 CALM 30.09F HX 97 JOHNS ISLAND PTSUNNY 90 77 66 S10 30.09F HX 102 PINOPOLIS N/A 84 75 74 VRB3 30.03S HX 92 MONCKS CORNER FAIR 86 72 62 S6 30.08F HX 92 SUMMERVILLE NOT AVBL BEAUFORT MCAS MOSUNNY 90 71 53 VRB6 30.09F HX 96 BEAUFORT ARPT FAIR 88 73 62 SW7 30.09S HX 96 HILTON HEAD IS MOSUNNY 93 73 52 SW5 30.10F HX 102 WALTERBORO SUNNY 90 68 48 SW6 30.09F HX 93 ALLENDALE FAIR 88 72 58 VRB3 30.08S HX 94 ...SOUTHERN MIDLANDS AND PEE DEE... CITY SKY/WX TMP DP RH WIND PRES REMARKS GEORGETOWN PTSUNNY 88 73 62 SW7 30.10S HX 96 KINGSTREE FAIR 86 70 58 SW8 30.09S HX 90 ORANGEBURG SUNNY 87 73 62 S6 30.09S HX 94 BARNWELL NOT AVBL AIKEN FAIR 88 72 58 CALM 30.12S HX 94 MANNING FAIR 86 70 58 S6 30.09S HX 90 COLUMBIA PTSUNNY 87 72 60 W6 30.08S HX 93 SUMTER NOT AVBL FLORENCE SUNNY 88 71 57 W9 30.08S HX 94 MYRTLE BEACH PTSUNNY 90 72 55 SW8 30.11S HX 96 N MYRTLE BEACH MOSUNNY 87 75 67 W7 30.08F HX 96 $$ GAZ063-065-086>088-099>101-113>116-118-119-134>141-150-251600- ...SOUTHEAST GEORGIA... CITY SKY/WX TMP DP RH WIND PRES REMARKS SAVANNAH ARPT MOSUNNY 87 72 60 S9 30.09F HX 93 HUNTER AAF NOT AVBL FORT STEWART SUNNY 86 73 66 S1 30.07F HX 92 STATESBORO SUNNY 88 74 64 S5 30.09S HX 97 SYLVANIA NOT AVBL CLAXTON FAIR 88 74 63 CALM 30.09S HX 96 ...CSRA...CENTRAL AND FAR SOUTHEAST GEORGIA... CITY SKY/WX TMP DP RH WIND PRES REMARKS THOMSON NOT AVBL AUGUSTA-BUSH SUNNY 89 71 55 NW3 30.06F HX 95 AUGUSTA-DANIEL SUNNY 88 72 58 CALM 30.09S HX 94 SWAINSBORO FAIR 86 73 66 SE3 30.09F HX 93 VIDALIA SUNNY 88 72 58 CALM 30.09S HX 94 EASTMAN FAIR 89 65 45 CALM 30.10F HX 91 HAZLEHURST FAIR 89 76 65 CALM 30.08S HX 99 ALMA SUNNY 86 73 65 CALM 30.09S HX 93 WAYCROSS SUNNY 89 76 65 CALM 30.09S HX 100 JESUP FAIR 88 77 70 S3 30.09F HX 100 BAXLEY FAIR 88 77 70 CALM 30.09S HX 100 BRUNSWICK SUNNY 90 72 55 SW3 30.10S HX 96 SAINT SIMONS SUNNY 87 71 58 VRB5 30.09S HX 93 $$ SCZ027-028-034-036>038-045-046-048>050-GAZ119-141-251600- ...LAKE AND SUPPLEMENTAL COASTAL OBSERVATIONS... STATION/POSITION TIME TEMP WIND PRES WAVE SWELL AIR SEA DIR/SP/G HT/PER HT/PER/DIR (UTC) (F) (DEG/KT/KT) (MB) (FT/S) (FT/S/D) WINYAH BAY 1345 85 240/ 7 1018.0 LAKE MURRAY 1400 84 200/ 4/ 5 1017.9S ACE BASIN NERRS NOT AVBL FORT PULASKI 1400 86 87 220/ 7/ 12 1019.5R SAPELO ISLAND 1400 86 210/ 6 1019.0S $$ ANZ835-935-AMZ111-154-330-350-352-354-370-450-454-472-251600- ...C-MAN AND BUOY OBSERVATIONS... STATION/POSITION TIME TEMP WIND PRES WAVE SWELL AIR SEA DIR/SP/G HT/PER HT/PER/DIR (UTC) (F) (DEG/KT/KT) (MB) (FT/S) (FT/S/D) BUOY 41004 1450 85 86 230/ 6/ 8 1018.9F 2/ 8 2/130/ 8 BUOY 41008 1450 84 86 210/ 4/ 6 1019.1R 2/ 8 2/130/ 8 FOLLY BEACH CMAN 1500 85 190/ 10/ 11 1019.2F CAPERS NEARSHORE 1408 84 84 210/ 8/ 10 1019.0S FRIPP NEARSHORE 1408 85 86 260/ 4/ 6 1018.6R STATION/POSITION TIME TEMP WIND PRES WAVE SWELL AIR SEA DIR/SP/G HT/PER HT/PER/DIR (UTC) (F) (DEG/KT/KT) (MB) (FT/S) (FT/S/D) 5E ST. MARYS GA 1401 86 N/A 2/ 8 FRYING PAN BUOY 1400 84 85 220/ 8/ 10 1018.9S BUOY 41025 1450 84 85 250/ 12/ 12 1018.5R 3/ 5 2/110/ 8 CAPE LOOKOUT NC 1400 85 260/ 11/ 13 1018.0F BUOY 41002 1450 83 85 180/ 4/ 6 1020.4R 2/ 8 2/100/ 8 BUOY 41010 1420 84 87 180/ 4/ 6 1019.4R ST AUGUSTINE FL 1500 81 85 110/ 7/ 8 1020.1F $$

USA.gov is the U.S. government's official web portal to all federal, state and local government web resources and services.